If you wish to contribute or participate in the discussions about articles you are invited to join SKYbrary as a registered user

 Actions

Le Touquet-Côte d'Opale Airport

From SKYbrary Wiki

LFAT
Airport
ICAO: LFAT – IATA: LTQ
Summary
Name Le Touquet-Côte d'Opale Airport
Region Europe
Territory France FR.gif
Location , Nord-Pas-de-Calais
Serving Le Tourquet
Elevation 10.973 m
36 ft
36 ft10.973 m
Type medium airport
Coordinates 50° 31' 2.59" N, 1° 37' 14.11" E
Runways
Designator Length Width Surface ROPS
6/24 0 m0 ft
0 m0 ft
UNK /
14/32 1850 m6,069.554 ft
40 m131.234 ft
ASP /


METAR
Observation LFAT 101300Z AUTO 18011KT 150V220 CAVOK 08/03 Q1018
Station Le Touquet
Date/Time 10 December 2019 13:00:00
Wind direction 180°
Wind speed 11 kts
Lowest cloud amount clouds and visibility OK
Temperature 8°C
Dew point 3°C
Humidity 70%
QNH 1018 hPa
Weather condition n/a